Fargo, ND

3:39 PM CST on December 12, 2019 (GMT -0600)
Hector International

Weather History for KFAR - October, 2019

Change the Weather History Date:

Wednesday, October 9, 2019

  Actual Average Record
Temperature  
Mean Temperature 53 °F 49 °F  
Max Temperature 66 °F 60 °F 85 °F (1938)
Min Temperature 39 °F 38 °F 16 °F (1897)
Degree Days  
Heating Degree Days 12 16  
Month to date heating degree days 143 132  
Since 1 July heating degree days 358 402  
Cooling Degree Days 0 0  
Month to date cooling degree days 0 0  
Year to date cooling degree days 527 548  
Growing Degree Days 3 (Base 50)    
Moisture  
Dew Point 46 °F    
Average Humidity 79    
Maximum Humidity 97    
Minimum Humidity 62    
Precipitation  
Precipitation 0.07 in 0.08 in 3.10 in (1982)
Month to date precipitation 1.54 0.73  
Year to date precipitation 26.24 19.33  
Snow  
Snow 0.00 in 0.10 in 0.90 in (1970)
Month to date snowfall 0.0 0.1  
Since 1 July snowfall 0.0 0.1  
Since 1 September snowfall 0.0 0.1  
Snow Depth 0.00 in    
Sea Level Pressure  
Sea Level Pressure 29.75 in    
Wind  
Wind Speed 13 mph ()    
Max Wind Speed 28 mph    
Max Gust Speed 34 mph    
Visibility 9.7 miles    
Events Rain    
T = Trace of Precipitation, MM = Missing Value Source: Averaged Metar Reports

Daily Weather History Graph

Daily Weather History Graph

Search for Another Location

Airport or City:

Astronomy

Oct. 09, 2019 Rise Set
Actual Time 7:36 AM CDT 6:51 PM CDT
Civil Twilight 7:06 AM CDT 7:22 PM CDT
Nautical Twilight 6:30 AM CDT 7:57 PM CDT
Astronomical Twilight 5:55 AM CDT 8:32 PM CDT
Moon 5:43 PM CDT (10/9) 3:02 AM CDT (10/9)
Length of Visible Light 12h 15m
Length of Day
11h 15m
Waxing Gibbous, 85% of the Moon is Illuminated
Oct 9
Waxing Gibbous
Oct 13
Full
Oct 21
Last Quarter
Oct 27
New
Nov 4
First Quarter

Hourly Weather History & Observations

Time (CDT) Temp. Windchill Dew Point Humidity Pressure Visibility Wind Dir Wind Speed Gust Speed Precip Events Conditions
12:53 AM 59.0 °F - 46.9 °F 64% 29.67 in 10.0 mi SSE 16.1 mph 27.6 mph N/A   Clear
1:53 AM 57.9 °F - 46.9 °F 67% 29.66 in 10.0 mi SSE 12.7 mph 23.0 mph N/A   Clear
2:53 AM 57.0 °F - 46.9 °F 69% 29.65 in 10.0 mi SSE 16.1 mph 24.2 mph N/A   Clear
3:53 AM 55.9 °F - 46.0 °F 69% 29.65 in 10.0 mi SSE 13.8 mph 23.0 mph N/A   Clear
4:53 AM 55.0 °F - 46.0 °F 72% 29.64 in 10.0 mi SSE 12.7 mph 23.0 mph N/A   Clear
5:53 AM 55.0 °F - 46.0 °F 72% 29.66 in 10.0 mi SE 13.8 mph 21.9 mph N/A   Clear
6:53 AM 54.0 °F - 46.0 °F 75% 29.67 in 10.0 mi SE 13.8 mph 21.9 mph N/A   Clear
7:53 AM 54.0 °F - 46.9 °F 77% 29.68 in 10.0 mi SSE 12.7 mph - N/A   Clear
8:53 AM 55.0 °F - 46.9 °F 74% 29.68 in 10.0 mi SSE 13.8 mph 19.6 mph N/A   Clear
9:53 AM 57.9 °F - 48.9 °F 72% 29.69 in 10.0 mi SSE 9.2 mph 23.0 mph N/A   Clear
10:53 AM 60.1 °F - 50.0 °F 69% 29.69 in 10.0 mi SSE 13.8 mph - N/A   Clear
11:53 AM 64.0 °F - 51.1 °F 63% 29.69 in 10.0 mi South 11.5 mph - N/A   Clear
12:53 PM 64.0 °F - 52.0 °F 65% 29.70 in 10.0 mi SSE 9.2 mph - N/A   Scattered Clouds
1:53 PM 64.9 °F - 52.0 °F 63% 29.70 in 10.0 mi South 9.2 mph - N/A   Overcast
2:48 PM 55.4 °F - 50.0 °F 82% 29.70 in 10.0 mi NNW 18.4 mph - N/A   Overcast
2:53 PM 55.9 °F - 50.0 °F 80% 29.70 in 10.0 mi NNW 17.3 mph - N/A   Overcast
3:53 PM 53.1 °F - 48.0 °F 83% 29.74 in 10.0 mi NNW 16.1 mph - N/A   Overcast
4:37 PM 48.9 °F - 46.0 °F 90% 29.76 in 10.0 mi NNW 16.1 mph - N/A   Overcast
4:53 PM 48.9 °F - 46.0 °F 90% 29.78 in 10.0 mi North 16.1 mph - N/A   Overcast
5:53 PM 48.0 °F - 46.0 °F 93% 29.80 in 10.0 mi NNW 16.1 mph - N/A   Overcast
6:53 PM 46.9 °F - 45.0 °F 93% 29.84 in 10.0 mi North 15.0 mph - N/A   Overcast
7:53 PM 45.0 °F 37.6 °F 42.1 °F 90% 29.88 in 10.0 mi North 17.3 mph 26.5 mph N/A   Overcast
8:53 PM 43.0 °F 33.8 °F 39.0 °F 86% 29.91 in 10.0 mi North 23.0 mph 33.4 mph N/A   Overcast
9:53 PM 41.0 °F 32.8 °F 39.9 °F 96% 29.92 in 10.0 mi NNW 16.1 mph - N/A   Overcast
10:53 PM 41.0 °F 33.1 °F 39.9 °F 96% 29.95 in 9.0 mi North 15.0 mph 20.7 mph N/A   Overcast
11:53 PM 39.9 °F 30.8 °F 39.0 °F 97% 29.96 in 4.0 mi NNW 18.4 mph - 0.03 in Rain Light Rain